Location: Sungai Buloh
(3.1000°N, 113.0000°E)
Time: 20:47:22
(UTC+00:00)

Daily predictions for brighter satellites

Satellite Brightness Start Highest point End
(mag) Time Altitude Azimuth Time Altitude Azimuth Time Altitude Azimuth
Cosmos 1869 Rocket 3.4 12:00:36 13° N 12:04:25 86° W 12:08:45 10° S
Spelda 3.7 12:01:45 10° WNW 12:04:05 38° WNW 12:04:05 38° WNW
Cosmos 1862 Rocket 4.4 12:02:20 10° SSW 12:06:37 50° W 12:10:17 14° NNW
COBE Rocket 3.8 12:09:24 49° NNE 12:10:43 76° E 12:15:40 10° S
Resurs 01 Rocket 2.0 12:07:06 10° S 12:11:25 62° WSW 12:15:43 10° NNW
Cosmos 2228 Rocket 3.9 12:15:41 10° SSW 12:20:04 49° W 12:22:06 28° NNW
ARIANE 5 R/B 4.1 12:14:18 10° WSW 12:20:08 62° SSE 12:35:54 26° E
Cosmos 1741 Rocket 3.8 12:20:51 78° ENE 12:20:54 78° ENE 12:26:05 10° SSE
Cosmos 968 Rocket 3.9 12:17:42 10° NNW 12:22:40 58° WSW 12:27:38 10° S
ATLAS 2AS CENTAUR R/B 4.2 12:23:48 10° SSE 12:27:24 21° SE 12:27:24 21° SE
Cosmos 1850 Rocket 4.1 12:25:01 10° NNW 12:30:19 75° WSW 12:35:37 10° S
ARIANE 6 FM1 Upper Stage 4.3 12:37:07 10° SSW 12:39:26 31° SW 12:39:26 31° SW
Meteor 2-5 Rocket 4.2 12:41:13 10° SSW 12:46:36 55° W 12:46:54 54° WNW
BLOCK DM-SL R/B 4.4 13:09:25 10° W 13:19:42 58° WSW 13:19:42 58° WSW
CZ-3C R/B 4.2 13:44:23 10° WSW 14:22:46 52° W 14:22:46 52° W
ARIANE 5 DEB (SYLDA) 4.4 19:44:01 34° ESE 19:44:01 34° ESE 19:46:29 10° ESE
ARIANE 5 R/B 4.3 19:57:00 74° ESE 19:57:00 74° ESE 20:26:35 10° E
ARIANE 5 R/B 4.3 19:56:59 74° ESE 19:56:59 74° ESE 20:26:35 10° E
ARIANE 5 R/B 4.3 19:56:59 74° ESE 19:56:59 74° ESE 20:26:34 10° E
ARIANE 5 R/B 4.3 19:56:58 74° ESE 19:56:58 74° ESE 20:26:35 10° E
ARIANE 5 R/B 4.3 19:57:00 74° ESE 19:57:00 74° ESE 20:26:34 10° E
ARIANE 5 R/B 4.2 20:07:29 16° SE 20:07:29 16° SE 20:08:20 10° SE
SL-16 R/B 3.5 20:13:10 34° SSE 20:13:10 34° SSE 20:16:17 10° SSE
SL-16 R/B 3.4 20:11:51 10° SSE 20:17:45 45° ENE 20:19:27 37° NE
BLOCK DM-SL R/B 4.2 20:19:31 37° ESE 20:19:31 37° ESE 20:21:57 10° E
USA 234 3.6 20:13:18 10° NE 20:19:44 61° SE 20:26:09 10° SSW
ATLAS 5 CENTAUR R/B 2.7 20:25:10 64° S 20:25:10 64° S 20:31:02 10° SSE
DELTA 2 R/B (1) 4.0 20:27:15 58° ESE 20:27:15 58° ESE 20:31:42 10° SE
Meteor 1-11 Rocket 4.2 20:22:14 10° S 20:28:06 61° E 20:30:38 34° NNE
Cosmos 1745 Rocket 3.9 20:29:56 10° S 20:36:11 85° E 20:37:48 53° N
Cosmos 2278 Rocket 4.1 20:45:30 10° SSE 20:50:16 28° ESE 20:55:01 10° NE
Ariane H10-3 2.6 20:51:37 31° S 20:51:37 31° S 20:54:16 10° ESE
BREEZE-M DEB (TANK) 3.8 21:01:00 31° S 21:01:00 31° S 21:03:04 10° SSE
Cosmos 1624 Rocket 4.1 20:59:59 30° N 21:02:36 73° ENE 21:07:49 10° SSE
Meteor 1-28 Rocket 3.5 21:00:39 10° SSE 21:03:16 52° SSE 21:03:16 52° SSE
CZ-3 R/B 4.2 20:59:25 21° W 21:09:52 31° SW 21:17:49 10° SSE
USA 215 3.8 21:05:16 10° SSE 21:11:20 41° SW 21:13:31 32° W
Ariane 42L R/B 3.6 21:09:53 20° WSW 21:14:51 58° S 21:18:47 10° E
MAQSAT/ARIANE V 2.3 21:17:36 44° NW 21:18:35 62° N 21:30:37 10° E
HETE-2 4.3 21:17:59 55° WSW 21:18:37 70° S 21:22:17 10° E
Cosmos 1766 Rocket 3.9 21:14:52 10° SSW 21:19:01 41° W 21:19:01 41° W
Ariane H10 2.2 21:19:35 54° SSW 21:19:39 55° S 21:23:09 10° ESE
Ariane H10+ 1.3 21:19:02 48° NW 21:19:41 55° N 21:22:33 10° E
Delta 7925 Rocket 4.3 21:21:31 28° W 21:24:06 46° SSW 21:30:37 10° SE
Cosmos 1943 Rocket 2.2 21:19:33 10° SSW 21:25:07 82° ESE 21:30:37 10° NNE
NOAA 12 4.0 21:20:49 10° N 21:25:59 68° WNW 21:31:12 10° SSW
TSX-5 3.9 21:23:09 21° NNW 21:26:16 89° E 21:30:11 10° SSE
Tiangong -1.6 21:27:12 12° SW 21:29:59 59° SE 21:33:06 10° NE
SL-14 R/B 3.9 21:30:29 31° W 21:30:29 31° W 21:33:40 10° SSW
Palapa B4 Rocket 3.5 21:31:01 31° NW 21:31:56 35° NNW 21:36:05 10° NE
Lacrosse 4 Rocket 4.0 21:29:44 10° SSE 21:32:58 22° ESE 21:36:08 10° NE
Cosmos 1943 3.6 21:33:02 22° NW 21:36:19 42° WSW 21:41:39 10° S
SL-12 R/B(2) 3.9 21:29:19 10° SSW 21:36:27 66° WNW 21:44:03 10° NNE
TIMED 4.3 21:33:01 10° SSW 21:37:15 76° WNW 21:41:28 10° N
Cosmos 1408 Rocket 4.4 21:34:18 10° S 21:38:34 52° E 21:42:48 10° NNE
Meteor 2-10 Rocket 4.1 21:39:12 10° S 21:44:06 57° E 21:48:59 10° NNE
Sich 1 2.9 21:42:28 10° S 21:46:43 70° W 21:50:55 10° N
Cosmos 2074 Rocket 4.3 21:42:24 10° S 21:48:40 72° E 21:54:54 10° N
RUBIN 8/PSLV 4.4 21:47:03 10° N 21:51:13 70° WNW 21:55:26 10° SSW
Cosmos 1140 Rocket 3.7 21:46:47 10° S 21:51:52 74° ESE 21:56:56 10° NNE
Atlas Centaur 2 4.1 21:53:04 10° NW 21:55:05 12° NNW 21:57:15 10° N
ARIANE 5 R/B 1.7 21:53:20 15° W 21:55:15 80° S 22:01:56 10° E
SeaSat 1 2.6 21:51:46 10° N 21:56:29 50° WNW 22:01:11 10° SW
Cosmos 921 Rocket 3.2 21:55:48 10° SSW 22:00:04 47° W 22:04:15 10° N
SL-16 R/B 4.1 21:57:28 10° SW 22:01:00 16° WSW 22:04:31 10° WNW
Cosmos 1023 Rocket 4.3 21:56:48 10° SSW 22:01:50 75° WNW 22:06:52 10° N
USA 234 4.4 21:57:49 10° N 22:02:23 20° NW 22:06:58 10° W
Longmarch 3A Rocket 4.0 21:57:38 10° SW 22:02:26 81° SSE 22:30:20 10° ENE
ARIANE 5 R/B 4.4 21:48:13 10° W 22:09:39 69° S 22:14:14 10° ESE
Cosmos 407 Rocket 4.0 22:17:02 10° S 22:22:05 65° ESE 22:27:06 10° NNE
Cosmos 2154 Rocket 4.1 22:16:22 10° SSW 22:22:38 63° W 22:28:51 10° N
